Home > Weather > Miami > Past weeks

Flag for U.S.A. Weather for the Past 2 Weeks in Miami, Florida, U.S.A.

Now
50 °F

Passing clouds.


Feels Like: 50 °F
Forecast: 49 / 67 °F
Wind: No wind

Location: Miami International Airport

Current Time: Feb 11, 2016 at 6:33:31 AM

Latest Report: Feb 11, 2016 at 5:53 AM


Visibility: 10 mi

Pressure: 30.27 "Hg

Humidity: 71%

Dew point: 41 °F

Location of MiamiLocation

Historic Weather in Miami — Graph

°F

Miami Temperature Yesterday

Maximum temperature yesterday: 63 °F (at 12:53 PM)
Minimum temperature yesterday: 55 °F (at 11:53 PM)
Average temperature yesterday: 59 °F

High & Low Weather Summary for the Past Weeks

 TemperatureHumidityPressure
High82 °F (Jan 27, 2:53 PM)100% (Feb 2, 3:53 AM)30.28 "Hg (Feb 2, 3:53 AM)
Low50 °F (Feb 8, 4:53 AM)37% (Feb 7, 4:53 PM)29.79 "Hg (Jan 28, 4:53 PM)
Average67 °F74%30.06 "Hg
* Reported Jan 27 4:53 AM — Feb 11 4:53 AM, Miami, Weather by CustomWeather, © 2016

Note: Actual official high and low records may vary slightly from our data, if they occured in-between our weather recording intervals... More about our weather records

Advertising

Miami Weather History for the Previous 24 Hours

 ConditionsComfort  
Time TempWeatherWind HumidityBarometerVisibility
4:53 AM
Thu, Feb 11
50 °FClear.7 mph68%30.26 "Hg10 mi
3:53 AM50 °FClear.5 mph68%30.24 "Hg10 mi
2:53 AM51 °FClear.5 mph69%30.25 "Hg10 mi
1:53 AM52 °FPassing clouds.8 mph72%30.26 "Hg10 mi
12:53 AM53 °FPassing clouds.6 mph64%30.26 "Hg10 mi
11:53 PM
Wed, Feb 10
55 °FPassing clouds.12 mph64%30.27 "Hg10 mi
10:53 PM56 °FPassing clouds.12 mph62%30.28 "Hg10 mi
9:53 PM58 °FPassing clouds.13 mph62%30.27 "Hg10 mi
8:53 PM59 °FPassing clouds.6 mph62%30.25 "Hg10 mi
7:53 PM58 °FPassing clouds.3 mph60%30.24 "Hg10 mi
6:53 PM59 °FPassing clouds.3 mph56%30.22 "Hg10 mi
5:53 PM60 °FPartly sunny.3 mph52%30.20 "Hg10 mi
4:53 PM60 °FPartly sunny.5 mph49%30.20 "Hg10 mi
3:53 PM61 °FPartly sunny.7 mph46%30.20 "Hg10 mi
2:53 PM61 °FPartly sunny.7 mph48%30.19 "Hg10 mi
1:53 PM63 °FPartly sunny.8 mph47%30.19 "Hg10 mi
12:53 PM63 °FPartly sunny.9 mph47%30.22 "Hg10 mi
11:53 AM62 °FBroken clouds.6 mph50%30.24 "Hg10 mi
10:53 AM61 °FBroken clouds.8 mph52%30.25 "Hg10 mi
9:53 AM58 °FMore clouds than sun.7 mph60%30.25 "Hg10 mi
8:53 AM57 °FMore clouds than sun.7 mph62%30.24 "Hg10 mi
7:53 AM56 °FMore clouds than sun.10 mph67%30.20 "Hg10 mi
6:53 AM56 °FPassing clouds.8 mph65%30.18 "Hg10 mi
Weather by CustomWeather, © 2016

See weather overviewHow to use our weather pages